Location: Arboucave
(43.6130°N, 0.4343°W)
Time: 12:35:52
(UTC+00:00)

ARIANE 5 R/B - Pass Details

Date: 17 November 2025
Orbit: 747 x 792 km, 98.8° (Epoch: 11 December)

Event Time Altitude Azimuth Distance (km) Brightness Sun altitude
Rises 18:17:55 0° 188° (S) 3,177 5.9 -18.6°
Reaches altitude 10° 18:20:23 10° 198° (SSW) 2,257 5.3 -19.1°
Maximum altitude 18:24:52 34° 263° (W) 1,221 4.2 -19.9°
Drops below altitude 10° 18:29:24 10° 328° (NNW) 2,278 5.2 -20.7°
Sets 18:31:55 0° 338° (NNW) 3,211 5.9 -21.1°
